Regional Weather Roundup
Issued by NWS

Home | Current Version | Previous Version | Text Only | Print | Product List | Glossary On
Versions: 1 2 3 4 5 6 7 8 9 10 11 12 13 14 15 16 17 18 19 20 21 22 23 24 25 26 27 28 29 30 31 32 33 34 35 36 37 38 39 40 41 42 43 44 45 46 47 48 49 50
000
ASUS43 KLSX 280610
RWRMO

WEATHER SUMMARY FOR MISSOURI
NATIONAL WEATHER SERVICE SPRINGFIELD MO
100 AM CDT WED JUN 28 2017

NOTE: "FAIR" INDICATES FEW OR NO CLOUDS BELOW 12,000 FEET WITH NO
       SIGNIFICANT WEATHER AND/OR OBSTRUCTIONS TO VISIBILITY.
       CURRENT SKY AND/OR WEATHER CONDITIONS ARE NOT AVAILABLE FOR
       CHILLICOTHE AND FARMINGTON.

MOZ001>031-035>038-043-044-053-054-280700-
...NORTHERN AND WESTERN MISSOURI...

CITY           SKY/WX    TMP DP  RH WIND       PRES   REMARKS
KANSAS CTY INT CLOUDY    74  64  71 S17       29.87F
6HR MIN TEMP:  74; 6HR MAX TEMP:  79;

KANSAS C DTWN  CLOUDY    76  64  66 S14G23    29.87F
6HR MIN TEMP:  76; 6HR MAX TEMP:  82;

LEE`S SUMMIT   CLEAR     74  65  73 S16G24    29.89F
6HR MIN TEMP:  74; 6HR MAX TEMP:  80;

ST JOSEPH      CLEAR     74  67  78 S14       29.85F
6HR MIN TEMP:  73; 6HR MAX TEMP:  80;

CHILLICOTHE      N/A     74  65  73 S8        29.89F
6HR MIN TEMP:  73; 6HR MAX TEMP:  78;

KIRKSVILLE     PTCLDY    67  58  72 SE12      29.93F
6HR MIN TEMP:  67; 6HR MAX TEMP:  77;


$$
MOZ066>068-077>081-088>096-101>105-280700-
...SOUTHWEST MISSOURI...

CITY           SKY/WX    TMP DP  RH WIND       PRES   REMARKS
SPRINGFIELD    CLEAR     70  64  81 S15       30.00F
6HR MIN TEMP:  70; 6HR MAX TEMP:  79;

JOPLIN         CLEAR     74  65  73 S13       29.96F
6HR MIN TEMP:  74; 6HR MAX TEMP:  84;

BRANSON          N/A     66  63  88 SE8       30.05S

$$
MOZ032>034-039>042-045>050-055>058-069>072-280700-
...CENTRAL MISSOURI...

CITY           SKY/WX    TMP DP  RH WIND       PRES   REMARKS
COLUMBIA       MOCLDY    70  64  81 S12       30.00R
6HR MIN TEMP:  69; 6HR MAX TEMP:  79;

JEFFERSON CITY CLEAR     72  63  73 SE9       29.99S
6HR MIN TEMP:  72; 6HR MAX TEMP:  81;

ROLLA          CLEAR     67  63  87 S9        30.02F
6HR MIN TEMP:  67; 6HR MAX TEMP:  78;

SEDALIA        CLEAR     73  66  78 S14       29.96F
6HR MIN TEMP:  73; 6HR MAX TEMP:  79;

WHITEMAN AFB   PTCLDY    72  72 100 S10       29.91F
WARRENSBURG    CLEAR     72  63  73 SE10G16   29.91F
OSAGE BEACH    MOCLDY    69  64  84 S8        30.01F

$$
MOZ051-052-059>065-280700-
...EAST CENTRAL MISSOURI...

CITY           SKY/WX    TMP DP  RH WIND       PRES   REMARKS
ST LOUIS INTL  CLEAR     73  54  51 S9        30.04F
6HR MIN TEMP:  73; 6HR MAX TEMP:  81;

SPIRIT OF STL  CLEAR     69  59  70 S3        30.02F
6HR MIN TEMP:  69; 6HR MAX TEMP:  80;

ST CHARLES     CLEAR     66  56  70 S8        30.02F
6HR MIN TEMP:  63; 6HR MAX TEMP:  79;


$$
MOZ072>076-082>087-097>100-106>115-280700-
...SOUTH CENTRAL AND SOUTHEAST MISSOURI...

CITY           SKY/WX    TMP DP  RH WIND       PRES   REMARKS
CAPE GIRARDEAU CLEAR     64  58  80 E3        30.06S
6HR MIN TEMP:  63; 6HR MAX TEMP:  78;

FARMINGTON     CLEAR     62  57  83 S3        30.08S
6HR MIN TEMP:  61; 6HR MAX TEMP:  77;

POPLAR BLUFF   CLEAR     66  65  96 CALM      30.05S
6HR MIN TEMP:  65; 6HR MAX TEMP:  79;

WEST PLAINS    CLEAR     66  62  87 S5        30.07F
6HR MIN TEMP:  65; 6HR MAX TEMP:  77;


$$



USA.gov is the U.S. government's official web portal to all federal, state and local government web resources and services.